Wind_Speed
22 21 22 24 25 26 26 24 24 22 23 21 21 20 17 16 17 16 15 12 10 9 7 6 4 5 8 7 6 6 7 7 5 6 5 5 4 4 4 3 4 4 6
24 22 23 23 24 26 25 23 23 22 22 20 19 18 15 15 15 13 11 10 7 6 4 2 3 5 5 5 4 4 6 6 6 6 4 3 2 2 1 2 2 3 4
24 23 23 23 23 23 22 22 21 21 20 19 17 16 14 13 13 10 8 6 5 3 3 3 3 3 4 5 3 4 4 5 6 6 4 4 3 3 2 2 1 1 3
24 24 23 22 21 22 21 21 20 19 19 18 16 16 13 13 11 8 4 2 2 3 5 4 4 4 4 5 4 3 4 5 6 5 6 6 5 4 4 4 4 2 4
23 23 23 21 20 21 21 20 19 18 18 17 15 14 12 10 7 4 2 2 4 4 3 5 7 8 7 7 6 4 4 6 7 7 8 7 8 7 5 4 5 6 5
23 22 23 23 22 21 20 19 17 17 17 15 14 12 9 6 4 2 3 4 5 6 9 10 10 9 9 8 7 6 7 9 8 8 9 8 9 9 9 8 8 7 7
23 22 24 22 22 21 20 18 18 16 15 14 12 9 7 5 5 5 6 7 9 10 11 12 11 10 9 9 8 9 9 9 7 7 10 10 9 8 9 9 8 9 9
23 23 23 22 21 19 18 18 17 15 14 12 10 8 7 9 9 11 12 13 12 13 12 12 11 10 10 11 11 13 12 12 12 13 14 13 10 9 10 8 8 7 8
22 23 22 20 20 19 17 16 16 14 13 11 9 9 10 13 14 14 15 14 12 11 10 10 9 9 9 7 10 12 10 12 14 11 11 14 10 10 11 14 9 10 9
20 23 22 21 19 18 16 14 14 13 12 11 9 10 12 14 15 13 12 11 11 10 9 9 9 9 8 7 10 12 13 16 15 15 10 10 11 9 10 12 12 11 11
20 21 21 23 21 19 16 15 12 11 11 10 11 12 13 13 13 12 10 9 9 7 6 7 7 10 8 9 11 13 13 15 13 13 13 14 8 11 11 9 9 9 8
24 22 20 20 19 19 16 14 11 11 10 11 12 13 14 12 10 9 8 7 6 6 6 7 8 9 12 13 14 16 16 17 12 13 13 10 10 9 8 8 6 7 9
24 23 22 21 20 18 16 16 15 11 11 11 12 13 12 11 9 7 7 7 6 7 9 6 9 12 13 15 16 18 16 17 12 11 12 10 9 12 6 10 10 9 7
25 23 23 23 21 19 15 16 13 12 10 11 11 11 11 10 7 5 4 7 6 7 8 8 10 13 15 16 18 15 15 13 9 7 12 12 10 11 8 10 11 8 8
25 23 23 24 23 21 17 14 12 13 12 11 10 10 10 8 5 4 3 3 4 7 9 9 12 16 19 18 17 13 11 14 8 4 11 12 6 9 10 10 11 10 10
22 24 23 23 23 23 19 17 15 15 11 10 10 8 9 6 4 3 1 3 3 5 9 11 15 19 22 16 12 13 11 10 9 8 10 12 11 7 10 13 13 13 11
20 22 24 23 23 24 23 19 18 15 11 10 10 8 8 5 4 4 4 4 5 7 10 13 16 19 18 11 11 12 6 7 9 8 11 12 13 13 11 12 12 14 15
18 20 23 24 25 24 25 23 19 18 14 14 9 10 8 5 6 5 5 7 10 11 13 16 16 15 13 10 9 8 5 5 7 7 10 12 14 15 15 12 13 15 16
17 17 21 23 23 25 25 26 23 19 18 14 14 11 11 9 7 7 6 8 10 12 15 15 15 13 11 9 7 4 7 4 7 9 10 12 14 15 17 16 14 13 15
19 18 19 20 19 23 24 24 26 22 21 19 16 15 15 12 8 8 10 10 10 10 11 12 13 10 8 9 6 6 8 8 7 9 9 11 12 13 15 15 14 14 14
24 22 21 21 18 21 26 27 27 25 22 20 16 18 16 13 11 10 9 10 10 11 13 16 15 8 5 7 1 4 7 10 9 9 9 11 11 14 14 16 16 15 16
24 24 24 21 20 19 23 23 24 23 21 19 19 20 18 18 16 15 14 12 13 14 14 14 15 8 5 4 2 2 2 6 8 9 10 11 13 13 14 17 17 17 17
28 25 25 23 19 20 20 20 19 19 20 22 23 21 19 19 20 19 15 13 13 15 14 13 13 10 8 5 4 3 2 2 8 8 9 9 10 11 14 15 16 16 18
28 25 25 24 21 19 22 20 21 19 19 21 24 21 18 21 21 22 22 16 13 12 12 12 12 9 8 6 4 3 5 5 3 4 5 7 9 9 11 14 14 17 18
31 27 26 23 22 19 20 21 21 21 20 16 19 22 20 17 18 19 20 21 15 13 13 12 10 8 8 7 3 3 4 9 5 4 5 6 4 7 9 11 14 16 18
34 30 28 24 20 20 18 21 23 21 18 17 17 16 15 14 15 18 19 20 17 16 14 12 9 8 7 6 4 4 5 4 6 5 6 7 2 5 6 8 11 14 17
Wind_Direction
146 144 142 139 139 140 139 136 134 134 137 136 137 132 123 127 135 135 128 114 104 106 105 96 75 10 352 6 26 45 58 63 65 65 69 79 78 87 87 81 139 156 154
147 148 145 142 143 144 142 139 138 138 139 137 134 134 124 123 131 125 122 114 108 105 99 64 3 349 15 39 36 62 63 58 55 49 48 66 60 83 53 68 134 167 175
152 151 152 146 147 147 144 142 141 140 141 141 140 138 128 124 130 125 119 112 107 99 74 54 50 33 12 21 58 83 56 50 40 31 15 17 357 324 325 321 259 233 202
156 156 154 157 154 152 149 146 146 145 146 146 145 143 136 132 128 124 113 98 105 96 93 71 31 39 46 53 78 91 44 31 21 13 5 348 331 320 306 290 245 281 249
155 161 160 160 158 155 152 151 152 150 148 146 144 143 139 133 133 134 108 91 111 98 77 64 71 72 63 59 64 54 28 8 359 355 339 334 318 312 309 309 275 265 251
153 156 154 157 156 154 154 154 152 150 145 143 140 140 133 127 129 100 91 95 81 81 84 86 82 72 60 47 28 1 353 349 1 355 348 328 303 309 308 310 321 293 270
157 160 157 156 156 155 154 154 152 151 146 141 136 132 127 108 95 95 95 94 95 95 91 87 78 67 58 43 19 10 1 342 333 320 315 323 320 295 298 306 301 302 286
160 162 161 160 156 155 156 157 157 153 147 140 131 123 114 101 95 102 104 103 99 94 91 85 72 53 37 28 29 13 354 342 337 317 305 312 314 294 288 295 280 305 265
165 162 164 163 161 158 160 158 156 152 145 136 125 113 106 105 102 104 107 105 98 92 81 62 45 33 31 29 4 0 350 343 347 350 322 324 317 299 287 280 283 287 311
173 167 167 166 171 160 160 158 158 150 144 131 122 118 115 114 111 107 103 95 83 67 47 35 21 15 14 22 9 5 3 343 338 326 333 345 343 337 312 305 290 324 318
179 176 174 172 175 171 164 166 161 150 141 134 134 131 125 121 115 112 100 77 57 50 31 11 12 16 11 356 358 5 360 351 345 345 344 338 344 332 350 348 324 326 332
185 182 184 182 175 182 168 164 163 166 159 148 143 139 137 133 124 112 98 71 49 33 28 33 13 8 2 6 8 3 1 4 346 3 8 12 22 21 15 6 354 351 348
188 187 187 186 184 186 178 170 175 183 172 161 150 151 150 144 136 114 100 70 62 55 49 36 9 359 359 357 355 358 355 359 9 359 0 20 40 13 27 20 9 351 346
193 195 191 192 192 192 182 183 175 181 188 176 165 163 160 151 150 139 99 65 76 51 27 12 358 350 351 354 351 349 347 353 352 1 16 11 30 21 26 18 13 1 4
195 197 198 196 197 195 183 193 183 190 189 175 178 175 171 165 152 153 91 68 33 7 4 355 350 347 341 344 347 348 2 9 20 3 19 25 19 9 22 21 17 21 22
197 199 201 201 201 197 190 189 197 195 194 191 186 189 195 188 189 171 51 11 7 338 333 336 339 336 343 348 354 352 355 25 41 37 39 31 32 19 12 19 22 21 33
205 205 205 204 207 205 199 199 198 192 188 190 212 202 198 202 229 256 292 321 316 321 329 331 329 328 338 354 346 354 43 81 51 56 34 31 35 36 26 23 39 49 48
208 208 207 207 208 211 209 205 205 200 197 199 211 217 214 225 230 259 282 295 302 309 322 330 333 338 348 353 359 30 70 71 54 48 46 46 37 33 32 46 51 48 54
213 210 206 210 211 212 213 212 215 216 213 220 218 222 215 222 230 248 270 287 300 308 325 332 341 338 356 6 17 58 26 85 62 64 61 48 41 44 51 53 51 61 50
216 218 218 216 211 211 210 213 213 222 222 221 229 217 224 211 237 254 266 278 293 312 331 338 349 352 13 30 53 54 67 84 80 72 65 56 50 53 49 51 52 50 52
219 219 222 221 214 208 209 210 214 218 215 219 222 217 222 236 242 253 265 268 280 298 323 338 346 2 10 18 8 40 80 79 83 76 67 70 61 50 44 50 50 47 42
225 223 222 222 222 217 216 220 218 217 219 220 214 212 216 235 250 255 255 264 274 284 306 323 333 0 18 16 43 185 71 74 84 79 83 68 59 53 51 52 45 37 31
225 229 230 225 222 221 220 222 218 217 218 216 213 213 215 235 251 253 253 263 271 275 293 313 325 327 360 349 337 269 205 148 104 83 73 69 63 50 51 50 30 33 26
224 227 230 230 227 223 219 219 220 222 223 222 218 218 230 247 250 245 246 259 267 272 283 305 317 321 331 329 319 267 242 199 141 133 99 81 69 53 53 46 31 31 29
227 227 226 226 226 223 221 218 220 224 230 225 225 227 229 233 244 248 239 239 254 263 277 295 304 304 309 309 299 246 218 208 206 174 165 133 92 58 49 47 35 36 43
229 226 224 224 229 225 219 219 216 225 228 220 213 217 224 238 256 257 226 229 249 260 274 279 288 283 298 293 286 258 226 221 222 211 167 175 146 96 72 53 46 56 52
Height
1542 1544 1546 1547 1548 1550 1551 1553 1555 1557 1558 1560 1561 1562 1564 1565 1566 1567 1568 1569 1570 1570 1571 1572 1572 1571 1570 1570 1569 1568 1568 1567 1567 1566 1567 1566 1566 1566 1566 1566 1565 1565 1566
1542 1545 1548 1550 1551 1552 1554 1555 1557 1559 1560 1562 1564 1565 1567 1568 1570 1571 1571 1571 1571 1572 1572 1573 1573 1573 1572 1572 1571 1570 1570 1569 1569 1569 1569 1568 1568 1568 1567 1567 1567 1567 1567
1544 1547 1550 1553 1554 1556 1557 1558 1559 1561 1562 1564 1566 1568 1569 1570 1572 1573 1573 1574 1573 1573 1574 1574 1574 1574 1573 1573 1572 1573 1572 1572 1571 1571 1570 1570 1570 1569 1568 1568 1568 1568 1568
1546 1549 1552 1555 1557 1559 1560 1561 1562 1563 1565 1566 1568 1569 1571 1572 1573 1574 1575 1575 1575 1575 1576 1576 1576 1575 1575 1574 1574 1574 1574 1573 1573 1573 1571 1571 1569 1569 1568 1567 1568 1567 1568
1547 1551 1553 1557 1559 1561 1563 1565 1566 1567 1568 1569 1571 1572 1573 1575 1575 1576 1576 1576 1576 1577 1577 1577 1577 1577 1576 1576 1576 1576 1575 1574 1573 1573 1572 1571 1570 1569 1567 1566 1566 1566 1567
1550 1553 1556 1559 1561 1564 1566 1568 1569 1571 1571 1572 1573 1574 1576 1576 1577 1577 1577 1577 1577 1578 1578 1578 1578 1578 1578 1579 1578 1576 1576 1575 1573 1572 1571 1570 1569 1569 1567 1566 1566 1565 1566
1552 1554 1557 1560 1562 1565 1568 1570 1572 1574 1575 1575 1576 1577 1577 1578 1578 1578 1578 1578 1579 1579 1580 1580 1580 1580 1580 1580 1579 1578 1577 1574 1573 1571 1569 1568 1569 1568 1567 1565 1563 1564 1565
1553 1556 1558 1562 1565 1568 1570 1572 1574 1576 1577 1578 1579 1579 1579 1579 1580 1579 1579 1579 1581 1581 1582 1582 1582 1581 1581 1581 1579 1577 1575 1574 1572 1570 1568 1565 1566 1566 1565 1564 1562 1562 1562
1555 1558 1561 1565 1567 1570 1572 1574 1576 1577 1579 1581 1581 1581 1581 1580 1581 1582 1581 1582 1582 1583 1583 1583 1583 1582 1581 1580 1578 1577 1574 1572 1572 1569 1566 1566 1565 1564 1563 1562 1562 1562 1561
1558 1559 1562 1567 1567 1571 1573 1575 1577 1579 1580 1581 1582 1582 1582 1582 1582 1584 1584 1584 1584 1585 1585 1584 1582 1582 1580 1580 1579 1576 1574 1571 1570 1568 1566 1564 1564 1563 1562 1559 1561 1560 1561
1558 1561 1563 1565 1568 1572 1573 1576 1578 1580 1581 1582 1583 1583 1583 1584 1584 1585 1586 1587 1587 1586 1585 1585 1583 1582 1581 1580 1579 1577 1574 1572 1569 1568 1566 1564 1564 1564 1562 1559 1560 1560 1560
1557 1560 1564 1566 1569 1570 1574 1577 1578 1581 1583 1583 1584 1585 1585 1586 1586 1586 1587 1588 1587 1586 1585 1585 1584 1583 1581 1580 1578 1576 1575 1572 1570 1567 1565 1564 1563 1563 1562 1561 1560 1560 1560
1556 1560 1564 1566 1568 1571 1574 1576 1579 1581 1583 1584 1584 1586 1586 1586 1587 1587 1588 1588 1588 1587 1586 1586 1584 1583 1582 1581 1579 1576 1574 1572 1569 1569 1567 1566 1565 1563 1562 1561 1560 1560 1560
1554 1558 1562 1566 1568 1571 1575 1576 1577 1580 1585 1585 1586 1586 1587 1588 1588 1589 1589 1589 1588 1588 1587 1586 1584 1583 1582 1581 1578 1575 1573 1570 1569 1570 1569 1567 1566 1564 1562 1561 1561 1560 1560
1552 1556 1560 1564 1567 1570 1574 1576 1577 1581 1585 1585 1586 1587 1588 1588 1589 1590 1590 1590 1589 1588 1588 1586 1584 1583 1582 1580 1577 1574 1572 1570 1569 1570 1569 1568 1567 1565 1564 1562 1562 1561 1560
1550 1553 1557 1561 1566 1570 1573 1576 1578 1581 1584 1585 1586 1587 1588 1589 1590 1590 1590 1591 1590 1589 1588 1586 1585 1583 1580 1579 1576 1574 1572 1571 1571 1571 1570 1569 1568 1567 1566 1564 1562 1562 1561
1550 1554 1556 1560 1564 1568 1571 1574 1577 1580 1582 1583 1586 1587 1588 1589 1590 1590 1591 1591 1591 1590 1589 1587 1585 1583 1581 1579 1577 1575 1573 1573 1573 1572 1572 1571 1570 1569 1567 1565 1564 1564 1563
1548 1551 1554 1557 1561 1566 1569 1573 1576 1578 1580 1581 1584 1586 1588 1589 1590 1590 1590 1591 1592 1590 1589 1587 1585 1583 1581 1579 1578 1577 1576 1575 1574 1574 1574 1573 1572 1570 1568 1567 1567 1566 1565
1547 1550 1553 1555 1557 1562 1566 1570 1573 1576 1578 1579 1582 1585 1587 1589 1589 1590 1590 1591 1591 1590 1589 1587 1585 1582 1581 1579 1578 1577 1577 1576 1576 1575 1576 1575 1574 1573 1572 1570 1569 1568 1567
1546 1549 1552 1554 1556 1559 1563 1567 1570 1573 1575 1577 1579 1583 1586 1587 1588 1590 1590 1590 1590 1590 1589 1587 1585 1583 1581 1580 1579 1579 1579 1577 1577 1578 1577 1577 1577 1577 1575 1573 1572 1571 1570
1543 1546 1549 1552 1554 1556 1559 1562 1565 1568 1572 1575 1577 1581 1583 1586 1588 1588 1589 1589 1589 1589 1588 1587 1585 1584 1583 1581 1581 1581 1580 1580 1579 1579 1579 1579 1580 1579 1578 1576 1575 1574 1573
1540 1543 1546 1549 1552 1554 1557 1560 1563 1567 1570 1573 1576 1579 1581 1583 1585 1586 1587 1587 1588 1588 1587 1586 1585 1584 1582 1582 1581 1581 1582 1583 1581 1581 1581 1581 1581 1581 1580 1579 1578 1576 1575
1535 1539 1542 1545 1548 1551 1555 1559 1561 1564 1567 1570 1573 1576 1579 1581 1581 1583 1585 1585 1586 1586 1586 1585 1584 1582 1581 1582 1581 1582 1581 1581 1582 1583 1583 1583 1583 1583 1583 1581 1580 1579 1577
1529 1535 1539 1543 1546 1548 1552 1555 1557 1560 1563 1566 1570 1574 1577 1576 1578 1579 1582 1583 1584 1584 1585 1583 1583 1582 1581 1581 1581 1581 1581 1581 1582 1585 1586 1586 1585 1585 1585 1584 1583 1581 1580
1526 1531 1535 1539 1543 1545 1548 1551 1554 1557 1560 1563 1567 1570 1572 1574 1575 1576 1577 1580 1581 1581 1583 1582 1582 1581 1581 1580 1580 1580 1581 1582 1582 1583 1586 1587 1587 1586 1586 1586 1585 1584 1582
1522 1526 1531 1536 1539 1542 1544 1548 1550 1554 1557 1559 1563 1566 1569 1571 1571 1570 1574 1577 1578 1579 1580 1580 1580 1580 1580 1580 1579 1580 1581 1581 1582 1583 1584 1586 1587 1588 1587 1587 1587 1586 1585